Wind_Speed
12 11 13 14 15 17 19 20 19 17 16 17 15 13 15 14 12 15 17 15 20 15 16 18 17 16 17 21 23 16 16 15 14 19 14 14 13 11 9 6 7 7 3 1 4 6 8 5 8 11 12 14 16 19 19 19 20 20 22 22 21 19 17 17 16 16 15 14 13 12 12 11 8 6 4 4 4 4 5 6 7 6 5 6 5 4
13 13 15 17 18 19 20 21 20 19 20 18 14 13 14 14 13 15 17 16 19 14 13 18 18 16 17 20 20 13 13 13 17 18 14 15 13 10 11 10 8 7 6 5 6 8 4 4 9 10 12 14 16 19 18 19 20 20 22 23 22 21 21 20 18 17 15 14 14 13 11 10 9 8 6 7 7 6 5 6 5 4 5 5 4 4
13 14 17 20 19 18 20 21 20 19 21 18 12 12 11 12 14 14 17 19 16 10 10 16 16 15 17 18 18 13 11 13 17 18 15 14 13 10 12 12 10 10 10 8 7 8 11 9 11 10 11 12 15 18 18 20 21 20 21 23 23 24 24 20 17 16 15 13 12 12 11 12 12 10 7 7 8 8 6 5 5 4 4 4 3 5
12 13 18 20 19 20 20 20 21 18 16 16 12 11 10 12 13 12 15 20 15 10 9 14 13 12 13 15 17 9 13 19 19 19 15 13 13 13 14 13 14 14 11 9 8 8 12 14 15 14 12 12 13 16 18 21 22 21 22 23 25 25 21 17 15 15 14 13 12 11 11 11 12 10 7 7 7 7 6 5 8 7 6 5 5 5
13 14 18 20 20 22 20 20 22 16 12 15 16 13 11 13 16 13 13 15 13 12 10 11 9 9 11 13 14 4 18 19 18 18 14 11 11 12 13 13 15 15 13 12 11 9 11 15 18 17 15 14 13 14 18 22 22 21 23 24 24 20 17 17 17 16 16 16 16 14 13 11 10 8 7 7 5 3 3 3 9 7 5 5 4 4
14 15 18 22 22 23 22 18 20 16 10 14 18 18 15 14 17 17 15 12 10 9 11 11 8 7 11 14 14 8 16 14 14 17 16 14 14 13 12 14 13 13 13 13 13 11 12 15 17 17 16 16 15 15 18 21 22 23 24 24 21 18 17 18 19 18 18 18 16 16 14 11 9 7 5 4 3 2 3 3 6 3 2 3 1 1
12 17 19 22 22 23 22 16 19 19 12 10 15 19 20 16 15 19 18 11 8 8 11 13 10 6 9 14 15 11 17 17 13 15 16 15 16 15 13 14 14 13 12 11 10 10 12 16 17 16 18 18 18 19 20 20 23 24 24 22 20 19 18 18 18 19 19 17 15 15 15 12 10 9 7 5 3 2 3 3 3 0 1 1 3 4
13 19 20 22 22 20 18 14 18 21 14 10 14 18 20 19 17 20 18 11 9 8 8 14 13 8 8 11 15 15 16 20 16 16 17 16 16 16 16 16 15 14 13 10 8 8 11 15 17 17 18 18 19 22 23 22 23 24 22 20 19 19 17 15 16 18 18 18 17 15 14 12 10 9 10 9 6 4 3 3 3 2 2 1 5 7
15 19 20 22 20 15 15 16 19 20 15 11 13 17 19 18 18 18 16 12 10 8 7 13 15 9 8 8 13 16 15 18 18 18 17 17 19 18 17 18 17 15 14 11 10 11 12 15 17 19 20 20 21 23 24 24 24 22 21 19 18 18 17 15 16 17 17 18 17 14 13 13 10 10 12 12 8 7 6 4 4 3 1 5 7 7
14 17 19 20 17 13 15 18 19 18 15 12 14 17 17 16 16 12 10 12 10 7 8 13 15 10 8 7 10 13 14 15 15 16 16 18 19 18 17 17 16 14 12 12 12 11 11 14 15 13 13 16 21 23 24 25 24 22 20 19 19 19 16 16 16 16 16 16 16 14 13 13 12 11 11 11 9 8 7 6 4 2 4 7 7 7
14 15 16 15 15 14 16 18 17 17 17 16 15 16 15 13 12 9 9 10 9 7 11 15 17 14 9 7 9 9 12 17 14 13 15 17 18 17 17 16 14 12 10 11 12 8 9 14 14 11 7 8 17 22 23 24 23 23 22 20 19 18 16 16 15 14 15 15 14 13 12 12 13 11 9 8 7 7 6 5 4 4 5 6 5 6
17 16 13 12 15 16 16 16 16 18 19 17 14 12 12 10 8 7 8 8 7 8 13 18 19 17 10 7 9 10 13 21 18 15 16 18 19 17 16 16 14 11 10 11 11 7 8 10 12 16 13 11 15 20 20 20 21 23 24 21 19 18 17 16 15 14 16 15 13 13 12 12 13 10 8 7 5 5 4 5 6 5 3 3 4 4
14 14 14 13 17 19 17 14 14 15 16 15 12 10 11 9 7 8 8 8 8 8 11 16 18 15 10 8 10 11 12 20 19 19 19 19 19 18 17 17 14 11 11 11 10 7 7 7 8 13 16 15 16 16 16 18 19 20 23 23 21 19 17 16 15 15 16 16 14 13 13 15 14 11 9 8 6 7 7 7 7 4 2 2 3 3
10 14 19 19 17 19 18 13 11 12 14 15 13 10 10 9 8 9 8 7 8 7 9 16 16 12 8 8 13 15 9 16 19 21 21 20 20 18 18 18 15 14 12 10 9 7 7 7 8 11 14 14 15 17 20 23 25 25 25 25 23 20 19 19 19 18 18 17 16 16 15 16 16 14 13 12 10 9 8 7 4 4 4 4 5 5
12 12 16 18 12 13 16 13 12 12 12 14 14 11 11 9 7 8 7 7 8 7 10 14 11 9 7 4 10 13 6 9 13 18 21 19 18 17 17 17 17 15 12 9 9 9 7 6 9 10 11 14 17 21 24 25 27 28 27 27 25 22 22 22 21 20 19 19 18 18 17 15 14 14 13 11 10 9 8 6 2 1 4 7 8 7
14 11 13 15 13 15 17 15 15 14 11 11 13 12 10 11 8 5 7 6 4 5 8 9 6 6 4 1 5 8 6 8 11 17 19 17 17 17 14 14 14 13 12 11 9 9 8 9 12 11 11 15 19 19 20 22 24 26 27 27 26 26 25 23 23 21 20 19 18 18 17 15 13 12 11 9 8 8 6 4 3 3 2 5 7 6
12 10 14 17 16 20 20 18 17 14 10 9 12 13 11 13 10 5 7 4 1 4 6 6 7 4 4 0 3 2 6 9 9 15 18 16 17 17 13 11 12 12 11 11 10 10 11 12 16 17 15 16 18 16 18 20 22 25 27 27 27 27 26 24 23 21 19 18 18 17 17 16 13 12 11 9 7 6 6 2 4 5 4 2 4 4
10 8 14 19 16 17 19 20 19 16 12 9 10 12 11 12 11 6 6 4 3 6 5 7 11 8 6 4 2 5 10 10 8 11 16 16 15 15 14 12 13 12 10 11 11 11 12 12 14 16 13 14 18 19 20 20 22 25 26 27 26 25 25 25 24 22 20 20 19 18 17 16 14 12 11 9 8 7 7 5 4 5 5 3 2 3
10 7 11 20 18 16 17 17 16 17 18 14 9 11 10 10 10 7 6 5 6 7 5 9 14 10 7 7 8 9 11 12 10 10 13 16 14 13 15 15 14 12 10 10 9 9 10 8 11 15 17 17 19 20 21 21 23 25 25 25 24 23 24 25 24 22 20 20 20 18 16 15 13 12 11 11 9 8 8 7 6 5 5 4 4 4
10 7 8 17 20 16 13 12 12 14 17 15 11 12 10 8 8 8 6 6 7 6 6 9 11 8 8 8 12 14 12 12 12 9 10 15 15 14 14 14 13 10 9 9 8 8 7 6 8 16 20 21 22 22 22 24 25 25 24 24 24 23 23 24 23 22 20 19 18 17 16 15 14 13 12 11 10 10 8 7 7 6 5 5 5 5
9 5 5 13 18 15 11 11 13 13 13 13 12 13 11 8 7 8 7 7 7 7 6 6 7 7 5 5 11 16 13 12 12 10 8 10 16 17 14 13 12 9 9 10 9 9 9 7 10 18 22 23 24 24 23 25 27 25 23 23 23 23 22 23 22 21 20 19 18 17 16 15 14 13 12 12 11 10 8 8 7 7 6 6 6 6
6 4 5 9 12 12 11 12 14 15 14 12 11 11 12 10 8 8 9 9 8 7 6 6 7 5 1 3 6 12 13 13 13 12 9 9 15 20 16 15 15 12 11 12 11 10 10 10 13 18 23 25 25 24 23 25 26 23 22 22 22 21 20 20 21 21 21 20 19 18 17 16 15 13 13 13 11 9 8 8 7 7 7 7 7 7
5 3 6 7 9 11 14 15 17 19 18 15 12 11 12 12 10 8 7 8 8 8 8 7 6 1 3 3 1 5 9 11 11 12 10 8 12 20 19 17 17 15 14 13 13 12 12 14 17 20 23 25 26 25 24 24 23 22 22 21 21 21 19 19 19 20 21 21 19 18 17 17 15 13 14 13 11 10 9 8 8 7 8 8 8 8
3 3 7 8 8 10 14 16 17 19 16 13 13 12 11 12 11 9 8 7 6 7 7 6 5 2 4 5 5 2 7 11 10 10 9 8 13 19 20 18 16 16 15 13 13 11 12 16 19 19 20 21 23 24 24 23 22 22 21 20 21 21 20 19 19 20 20 20 20 19 18 17 16 14 14 13 11 11 10 9 9 9 9 9 9 9
3 6 9 8 9 10 11 13 15 17 15 11 12 14 14 15 16 13 9 6 4 8 11 7 4 4 3 3 3 2 3 6 6 9 13 15 16 17 17 16 16 16 14 13 13 13 12 14 15 15 18 20 21 23 23 22 21 21 20 20 21 21 20 20 20 20 20 20 20 20 18 18 16 15 14 13 12 12 11 10 10 10 10 10 10 10
5 7 9 8 9 10 11 10 11 12 12 10 13 17 18 18 19 14 7 5 5 9 13 8 3 6 5 5 4 5 10 11 11 14 16 15 16 16 14 13 14 14 13 13 14 14 13 12 12 15 18 20 21 22 22 22 21 19 18 19 21 21 20 19 19 21 21 20 20 20 19 17 16 15 14 13 13 13 12 11 11 11 11 11 11 12
5 6 10 11 10 10 11 11 12 12 12 13 16 20 19 17 17 11 6 6 7 8 10 6 5 9 7 7 9 8 12 11 9 12 14 13 14 15 14 12 12 11 12 13 14 13 12 11 12 15 19 21 22 22 21 22 21 19 18 18 18 17 18 18 19 20 21 21 20 19 18 17 16 15 15 14 14 13 12 12 12 12 12 11 12 12
5 6 12 15 13 12 13 14 16 17 16 16 17 20 20 18 18 13 7 8 9 7 7 5 10 9 7 8 10 10 11 11 10 11 12 11 11 12 13 13 13 13 13 13 12 12 13 13 12 14 18 21 22 22 21 22 22 20 19 17 15 15 18 18 17 19 21 21 20 19 18 17 16 16 15 15 14 14 14 14 13 13 12 12 13 13
5 7 12 13 14 14 14 16 17 17 17 17 17 18 19 20 20 15 8 11 12 8 5 6 11 9 7 8 9 11 12 11 12 11 10 11 11 12 14 15 14 14 15 14 13 13 14 14 13 13 17 20 22 22 22 22 21 20 19 18 16 16 18 17 17 19 20 19 19 19 18 17 17 17 16 16 16 15 15 14 14 14 14 13 13 14
5 6 10 12 13 12 12 14 16 16 16 18 19 18 16 17 20 18 12 13 13 10 8 6 7 8 9 9 9 12 14 12 12 12 11 13 13 12 13 15 14 14 14 12 13 13 13 14 15 15 17 20 22 23 22 21 20 19 19 20 19 18 17 17 17 17 17 18 19 18 17 17 17 17 17 16 16 16 15 14 15 14 14 14 13 14
5 5 8 10 9 10 12 13 15 15 15 17 18 19 17 16 18 18 14 11 10 11 11 10 7 4 6 8 10 13 15 13 13 13 12 14 14 13 14 15 14 12 12 13 13 13 12 12 15 17 18 20 22 23 22 21 19 18 19 19 20 19 17 16 16 17 17 17 18 18 18 18 17 17 17 16 16 15 15 15 15 15 15 14 14 14
5 4 6 8 7 8 11 13 14 16 15 15 16 18 18 15 14 14 13 11 10 10 10 10 6 3 6 9 11 12 14 14 14 13 12 12 14 15 15 16 15 12 13 14 13 13 13 12 14 17 20 22 22 21 21 21 20 19 18 18 18 18 18 18 18 16 17 17 18 19 18 17 18 17 17 16 15 15 15 14 15 15 15 14 14 13
6 5 5 7 6 7 10 13 10 10 12 12 12 15 18 15 13 14 15 15 13 9 7 7 5 6 9 10 10 11 13 13 12 12 11 12 14 15 14 15 15 14 13 14 14 14 14 13 15 18 21 22 22 21 20 20 20 19 18 18 17 15 16 19 19 16 16 17 17 18 18 17 17 17 16 16 15 15 15 14 14 14 14 14 14 13
8 6 6 6 5 6 10 8 4 5 8 5 1 6 14 17 17 15 12 13 14 10 7 5 7 11 10 10 11 11 12 12 11 11 11 11 12 13 14 15 15 14 13 13 14 14 13 15 18 20 20 21 21 20 19 18 19 20 19 18 17 14 14 17 18 17 18 17 16 17 17 17 17 17 16 15 15 15 14 14 14 14 13 14 14 13
8 6 5 5 6 6 6 5 3 5 5 2 7 7 8 12 16 16 13 13 14 13 11 8 11 15 12 10 10 9 9 10 10 10 12 12 11 12 13 16 17 16 14 14 14 14 14 17 21 21 21 21 21 22 21 19 18 19 19 18 18 16 16 16 16 18 19 17 16 17 17 16 17 17 16 15 15 15 14 14 14 13 14 14 14 13
7 4 4 4 6 5 6 6 5 3 1 5 8 8 7 6 6 10 13 14 15 14 14 12 10 12 10 10 11 9 9 11 9 7 10 12 14 14 14 15 18 17 14 14 15 17 18 21 22 22 24 25 24 24 24 22 20 19 19 19 18 17 16 15 15 17 18 18 17 16 16 16 17 16 15 15 15 15 14 14 14 15 16 15 14 13
8 6 5 5 5 4 5 7 4 2 1 4 5 5 4 3 5 5 5 8 13 14 13 13 10 11 12 11 12 12 11 12 8 6 10 13 15 16 15 16 18 17 16 17 20 22 23 23 23 24 26 26 25 24 22 22 22 21 20 19 18 17 17 16 14 15 17 18 17 16 16 17 17 16 16 15 15 15 15 15 15 15 15 15 14 14
10 6 4 3 4 4 5 6 5 3 3 4 4 3 3 5 6 5 3 4 10 12 13 14 11 13 14 13 15 14 11 10 8 7 11 14 16 16 16 17 18 19 19 21 24 26 25 25 26 26 25 25 25 24 22 21 22 22 20 19 19 18 17 16 15 14 16 17 17 16 17 16 16 16 16 15 15 15 15 16 14 14 14 14 15 15
12 6 3 3 4 5 5 5 6 5 3 2 3 4 3 6 5 4 4 5 7 8 11 14 13 14 16 15 15 13 9 7 7 8 12 15 16 16 15 16 16 18 21 24 26 27 26 27 27 26 25 25 25 24 23 22 21 21 19 19 19 18 17 16 16 16 17 17 17 17 17 16 16 16 16 15 15 15 16 16 14 13 14 14 14 14
10 6 4 6 6 5 6 5 3 2 1 1 1 2 4 5 4 6 8 6 4 5 8 10 12 16 16 14 13 12 8 6 7 11 14 16 16 15 16 16 16 18 22 24 26 27 28 27 27 25 25 25 25 25 24 23 22 21 20 19 18 18 17 16 16 18 18 18 18 17 17 16 16 15 16 16 16 15 15 14 13 13 14 13 13 12
8 6 6 7 6 5 5 5 2 1 2 3 2 1 3 5 6 7 7 2 2 4 8 8 8 14 17 13 11 9 6 4 11 16 18 19 18 16 17 21 22 24 25 26 27 28 27 25 25 25 24 24 25 24 23 24 23 19 18 20 19 17 17 17 19 20 19 19 18 18 17 17 16 17 17 17 16 15 14 13 12 13 14 13 12 12
7 6 6 7 7 5 5 5 4 2 3 3 4 2 2 4 5 4 2 3 7 6 8 12 9 12 17 15 10 7 6 13 18 20 19 20 19 17 18 21 23 24 25 28 29 28 26 24 24 24 23 24 24 22 21 22 23 21 19 19 18 17 17 19 20 20 20 19 19 18 18 18 18 18 18 16 16 15 14 14 13 13 13 12 11 11
6 6 6 6 5 4 5 6 5 2 3 5 6 5 1 1 1 2 5 4 6 6 3 10 10 12 15 13 7 7 13 18 20 20 20 20 20 19 18 19 19 21 25 27 27 27 25 25 25 24 23 23 23 22 21 22 24 21 19 19 18 18 18 19 19 20 20 19 19 19 18 18 18 17 16 15 15 15 15 14 14 13 13 12 12 11
7 6 5 5 5 5 5 4 2 3 6 6 5 4 2 1 1 3 5 3 4 6 5 0 4 9 12 11 8 10 15 17 17 20 21 20 20 19 16 17 19 23 26 27 27 27 27 25 24 24 24 22 21 21 21 22 23 22 21 20 20 20 20 20 20 20 20 20 20 19 18 17 16 16 15 15 15 15 14 14 13 13 13 12 11 11
4 3 0 1 2 1 1 3 3 5 7 6 3 5 6 4 2 3 3 4 5 6 7 7 7 7 6 8 10 12 14 16 17 20 20 19 19 17 15 17 21 24 25 25 26 28 27 26 25 25 24 22 21 21 21 22 24 25 23 23 22 22 21 21 20 20 20 19 19 18 18 17 17 16 15 15 14 13 12 12 11 11 10 10 9 9
3 3 1 1 3 5 5 5 4 5 7 6 4 5 6 5 3 4 4 5 5 6 6 6 8 7 6 8 10 12 14 16 17 18 18 16 17 16 15 17 21 24 25 24 25 26 26 26 26 24 23 23 22 22 22 23 25 25 25 24 23 22 21 22 21 20 20 19 19 19 18 18 17 16 15 14 13 13 12 11 11 10 9 9 9 8
3 2 3 3 4 4 3 3 4 4 4 4 5 4 4 4 3 3 4 4 5 6 5 5 6 8 8 9 11 13 17 19 17 17 15 13 14 16 16 16 19 22 24 25 27 27 26 26 25 24 24 23 22 23 23 23 24 24 24 23 23 22 22 22 21 21 20 20 20 19 18 18 17 16 14 12 11 11 10 10 10 11 11 9 8 7
3 4 4 4 3 2 5 4 3 2 1 2 3 4 4 4 3 3 3 3 4 6 6 5 5 5 5 9 14 16 17 19 19 17 14 12 13 15 15 17 20 21 22 25 28 28 26 25 25 25 24 22 22 23 24 23 23 23 23 23 22 23 23 22 21 21 20 20 19 19 18 18 17 16 15 15 13 13 13 12 12 14 15 13 11 10
3 5 5 3 1 3 6 5 1 2 3 2 3 4 5 4 4 4 4 4 5 6 6 6 6 4 3 9 15 17 17 18 19 18 16 13 13 15 16 19 23 24 24 25 27 27 26 25 26 26 23 22 23 24 23 23 23 23 23 23 23 23 23 22 22 21 20 19 19 19 18 17 17 17 18 19 19 18 16 14 14 15 16 15 13 12
2 2 4 4 3 2 2 1 2 0 2 2 3 4 5 4 4 5 4 4 5 6 7 8 7 6 6 9 13 16 17 17 18 19 17 14 14 16 19 22 24 26 26 26 25 25 24 24 27 27 24 23 24 23 23 23 23 23 23 23 23 23 23 23 22 20 19 19 19 18 17 16 17 18 18 19 19 19 18 17 15 14 14 13 12 12
1 1 2 2 2 2 2 1 2 1 1 1 2 3 4 4 4 5 5 4 4 5 7 8 8 7 8 8 10 14 17 16 16 19 17 14 15 19 22 24 25 25 25 25 25 24 23 24 26 26 24 23 23 23 23 23 23 23 23 22 23 23 23 22 21 20 19 19 18 17 17 17 18 18 18 17 18 19 19 20 18 16 14 13 12 11
Wind_Direction
197 204 209 212 210 206 208 213 215 218 224 220 212 213 212 225 228 212 230 208 172 189 210 217 225 219 230 241 250 248 197 172 98 88 97 103 108 119 127 112 100 116 123 148 242 282 304 265 176 164 165 160 155 156 153 150 148 144 143 144 143 143 147 152 158 164 160 161 171 174 180 183 165 154 173 176 184 225 235 234 224 203 208 213 199 207
199 211 211 210 210 207 207 213 215 216 230 236 223 220 213 218 231 215 223 213 176 187 211 212 224 220 224 243 251 235 180 141 99 100 108 110 118 131 137 140 132 135 154 179 182 172 172 221 211 188 167 162 157 155 155 151 148 147 144 141 140 146 158 163 162 162 159 164 174 173 173 169 149 150 171 180 191 199 208 237 235 202 203 200 192 223
203 216 211 208 210 211 209 210 215 215 226 243 236 231 223 207 230 225 219 220 190 178 214 208 216 223 222 241 252 224 160 111 106 118 119 122 131 138 143 146 148 148 153 172 187 166 147 171 225 215 175 172 163 156 156 152 152 150 142 140 148 161 169 161 151 154 152 150 161 170 167 153 148 161 179 189 190 177 180 238 253 229 216 203 199 226
202 213 208 206 208 213 213 206 211 216 219 237 237 236 234 205 218 227 215 218 194 168 217 210 204 226 222 230 250 228 120 108 118 127 132 141 146 148 151 148 149 153 156 172 188 175 151 167 209 212 185 179 170 159 157 155 156 150 141 149 164 172 167 150 143 147 144 140 147 158 159 152 156 168 185 194 183 162 164 218 239 227 216 207 202 220
206 204 200 204 206 209 213 205 205 213 214 226 233 235 239 217 214 225 220 211 188 174 212 225 207 220 226 222 233 159 105 118 131 133 139 143 141 140 144 150 155 159 164 178 188 183 165 172 194 201 184 173 170 164 160 159 155 146 147 163 172 167 156 150 151 149 147 150 150 153 153 147 152 163 180 180 153 137 152 238 253 240 225 221 203 211
210 200 195 202 205 204 211 208 201 207 212 220 228 231 238 232 214 219 222 196 183 191 198 219 232 213 218 223 218 155 113 128 142 141 145 138 138 143 146 156 164 168 173 182 189 182 171 174 183 190 181 169 169 168 162 157 150 147 157 171 169 155 151 153 152 152 153 151 149 147 139 132 136 134 140 141 106 125 157 230 260 267 288 258 205 127
211 199 194 201 203 202 208 211 201 202 212 216 217 224 238 242 217 212 215 182 175 214 190 202 236 230 209 216 218 185 132 137 152 147 148 143 145 154 158 165 169 173 182 191 195 180 169 171 176 183 178 170 170 165 157 151 148 153 163 168 162 154 148 146 148 151 150 146 142 135 126 125 128 118 121 140 140 135 136 170 205 136 310 270 64 55
207 200 194 198 203 201 205 210 202 199 212 217 202 213 232 244 234 215 208 182 172 207 203 202 219 241 228 203 207 201 149 142 156 153 151 152 153 159 163 169 170 172 182 192 198 190 178 174 176 177 171 170 170 160 154 154 153 157 162 159 155 150 143 142 147 149 150 148 144 136 131 131 129 129 139 141 132 125 138 161 152 153 207 110 63 48
203 204 193 194 203 202 201 210 204 198 211 217 196 208 226 239 245 228 211 204 190 192 221 212 205 227 246 201 196 201 165 146 155 155 156 158 159 163 164 167 170 174 182 184 186 195 190 177 174 172 168 168 167 158 155 158 155 152 154 150 144 141 140 143 147 148 149 146 142 141 139 137 141 146 141 134 135 148 159 155 138 157 139 70 58 40
199 208 197 191 204 205 198 208 206 197 207 216 203 206 218 233 246 246 236 229 212 201 230 217 196 208 242 218 206 203 169 151 157 155 159 165 164 166 167 165 165 171 181 181 181 191 185 170 165 163 165 165 160 158 156 153 148 142 143 140 133 134 137 139 145 149 149 150 150 146 141 139 139 136 131 131 139 147 150 150 138 105 49 53 46 34
191 202 206 194 202 206 197 204 206 198 202 214 215 205 205 223 236 252 260 236 213 211 231 226 204 199 227 227 220 217 164 150 158 161 160 165 166 167 167 160 160 170 179 174 170 167 161 158 145 129 142 165 157 158 155 146 140 138 139 134 128 131 133 133 141 145 146 150 146 138 137 134 127 122 120 123 130 143 155 150 113 69 42 28 17 29
192 192 208 196 197 205 197 197 204 203 201 209 222 208 193 208 220 238 252 226 211 212 219 231 219 199 211 227 225 226 170 149 155 166 166 166 165 166 164 158 161 175 181 171 158 142 147 152 136 134 152 175 164 158 151 139 136 139 139 133 126 127 129 129 134 135 133 133 130 130 132 119 110 113 121 121 121 120 104 88 81 59 39 36 30 45
198 187 203 197 194 204 198 190 200 202 197 206 222 211 191 194 198 219 230 209 213 224 212 225 226 209 209 220 235 238 182 157 159 164 169 172 168 164 165 162 162 173 177 168 155 144 152 155 143 144 156 174 173 161 148 136 134 138 137 133 127 126 129 128 128 127 122 121 123 126 120 106 97 99 107 103 92 85 70 68 72 41 31 77 57 53
192 185 202 198 189 200 197 184 194 193 188 201 214 209 195 190 189 204 218 207 212 235 229 225 227 221 209 205 235 249 200 164 166 163 168 174 169 164 163 160 157 166 168 155 146 150 158 158 149 148 158 176 173 156 150 148 144 142 137 131 127 126 128 123 118 118 115 113 113 111 108 103 97 93 93 88 82 83 71 61 64 28 21 43 49 62
194 189 197 195 182 196 201 196 198 189 186 201 212 218 208 197 196 198 207 208 206 221 231 231 228 218 211 202 234 244 210 160 161 158 163 168 164 159 158 158 156 157 153 138 136 143 149 149 143 153 174 180 168 152 149 150 145 141 136 132 129 128 125 118 115 116 111 108 106 103 101 101 99 94 89 86 86 91 80 57 56 21 14 31 46 60
201 191 180 181 174 188 207 220 210 192 189 201 210 219 210 197 195 195 212 214 208 225 221 226 235 208 196 318 273 242 197 150 142 148 158 162 158 152 145 146 145 139 132 128 133 143 153 155 150 169 193 177 163 151 141 142 140 136 133 131 130 127 123 119 117 116 110 108 105 101 96 95 97 92 88 89 88 100 107 68 58 87 48 32 37 36
196 185 176 182 184 188 204 223 218 198 189 198 208 210 202 205 206 190 206 196 84 250 213 201 227 190 136 145 293 240 135 128 133 147 157 160 155 144 126 118 123 121 124 136 150 157 165 170 164 173 183 163 149 141 138 140 137 131 130 130 129 126 123 120 116 113 109 108 105 102 98 96 98 97 96 101 101 125 154 132 70 82 87 61 33 27
182 175 179 189 197 195 201 218 219 202 193 202 204 195 191 217 229 215 202 179 180 233 215 200 214 196 164 185 185 138 133 139 152 149 151 154 147 132 117 113 122 127 136 148 159 165 172 177 163 152 147 140 138 139 143 141 131 128 129 129 127 124 122 119 115 113 112 109 105 104 103 102 105 108 111 122 132 142 146 132 109 93 89 100 90 67
183 177 174 185 196 197 197 215 218 197 200 214 201 181 189 217 225 215 205 193 196 214 219 217 213 204 202 186 160 168 164 159 166 154 148 154 147 126 117 122 133 140 148 154 160 171 170 157 138 127 126 138 144 141 140 137 130 128 127 125 123 122 120 118 117 116 113 110 108 109 112 114 120 125 128 133 135 134 131 123 119 115 107 105 93 82
193 191 166 180 190 188 187 211 216 190 197 218 205 186 204 224 218 213 208 201 203 207 212 219 214 208 217 190 169 179 174 162 170 170 160 156 147 137 130 134 145 153 158 158 157 159 138 111 135 142 142 150 150 141 141 140 133 130 127 124 122 119 118 117 118 118 115 115 117 118 121 123 126 128 129 129 127 127 127 124 123 119 113 103 91 82
191 197 164 178 185 186 188 204 210 190 188 213 209 192 201 219 217 214 211 203 207 209 202 218 224 207 210 214 190 182 169 165 178 178 173 160 142 139 144 144 147 154 157 153 151 147 129 133 166 156 148 152 148 143 146 140 133 131 128 124 121 119 118 117 117 119 119 121 123 122 120 119 121 122 122 121 122 123 120 116 117 114 108 101 91 81
184 188 156 172 182 190 196 198 206 202 193 205 214 198 196 207 212 210 212 209 209 212 204 217 232 205 122 302 210 181 170 174 180 173 178 182 149 140 147 148 144 151 158 152 152 150 139 155 173 155 145 147 142 139 140 133 132 133 127 125 124 122 122 120 121 124 124 125 125 120 115 115 116 115 114 116 117 118 117 113 112 109 104 98 86 78
176 169 151 179 194 193 192 191 209 217 204 201 216 210 196 202 213 210 208 208 206 211 211 215 221 186 25 355 98 143 170 178 182 181 187 188 144 132 139 144 140 146 154 151 148 148 144 153 159 145 137 138 134 132 132 130 130 129 127 128 128 126 127 126 125 126 125 126 125 122 118 116 116 113 111 114 116 117 115 109 106 102 96 92 85 78
158 167 160 184 197 196 194 190 206 222 214 202 213 221 210 202 208 216 217 208 204 212 210 208 203 155 37 22 43 77 187 186 188 185 163 123 114 125 135 139 138 142 149 149 142 137 136 139 141 134 129 130 127 126 127 127 128 130 132 134 131 129 129 127 128 129 127 125 124 122 120 118 118 119 118 118 118 116 111 104 100 97 92 89 84 79
156 178 168 181 183 184 193 188 199 215 217 205 200 214 224 209 198 211 228 214 205 222 219 213 192 157 100 52 34 20 169 161 145 127 113 105 113 125 130 134 140 141 141 143 136 131 134 135 132 127 124 123 120 121 125 128 131 134 135 134 130 127 127 129 132 132 131 129 126 124 121 119 120 122 120 118 116 112 108 103 97 94 90 87 84 81
176 179 168 186 185 181 193 193 191 200 210 210 199 210 226 220 204 203 214 209 201 217 225 228 149 131 128 132 137 80 67 72 82 95 102 110 118 123 127 133 139 137 131 130 131 134 138 134 125 120 120 121 121 123 127 130 130 126 123 125 127 127 130 135 137 136 134 132 129 126 123 121 122 121 118 115 112 108 105 101 97 94 90 87 86 84
185 186 188 202 196 191 201 196 184 186 202 207 200 206 215 221 222 215 193 207 209 206 230 237 141 138 147 155 155 122 92 87 88 96 103 112 119 126 132 129 124 126 126 126 132 135 130 123 122 123 124 127 129 130 130 131 129 122 115 117 120 125 133 138 140 138 134 130 127 124 122 121 120 118 116 113 110 108 105 102 98 94 91 87 84 81
187 192 202 210 206 202 202 196 186 187 204 210 206 208 203 203 226 235 204 204 213 214 226 182 131 142 164 160 153 138 118 110 108 107 108 112 117 121 123 120 117 124 131 132 135 133 127 127 129 129 131 133 134 132 129 130 131 126 120 118 117 121 127 133 139 136 129 125 123 120 119 119 117 116 115 112 110 107 104 102 98 95 91 84 79 75
194 202 202 210 219 211 195 197 196 189 199 213 217 218 205 198 219 235 215 203 213 230 231 151 136 153 169 162 157 147 133 121 116 115 112 113 111 108 116 124 129 136 142 143 141 135 131 133 133 132 135 136 133 129 129 130 130 127 126 127 125 124 125 129 134 130 123 119 119 118 118 118 117 116 113 111 109 105 103 101 97 94 89 81 77 75
192 209 201 208 225 220 203 204 199 188 195 206 211 217 209 202 218 227 218 207 210 227 238 210 183 182 175 171 161 136 124 122 121 121 126 130 125 119 126 133 139 145 144 137 133 132 133 134 133 133 136 136 133 131 129 128 128 128 132 136 136 137 139 137 133 127 122 120 118 119 119 119 118 116 112 110 108 105 103 99 95 91 86 81 78 75
182 214 215 215 218 223 240 232 198 186 202 207 207 212 210 207 216 221 221 218 217 221 226 230 236 215 162 141 129 122 122 130 134 136 142 143 137 135 139 141 143 142 132 123 124 128 131 132 131 134 137 137 136 133 129 130 133 132 134 138 138 141 144 139 130 125 123 122 121 120 119 118 117 114 112 111 108 106 104 100 95 90 85 82 78 75
184 236 230 221 210 211 242 241 202 187 201 208 209 212 212 211 212 211 215 221 222 219 218 224 229 175 117 113 119 131 137 140 144 149 152 150 146 147 149 148 144 135 127 126 127 130 130 130 131 135 137 137 137 133 132 135 136 133 134 135 137 147 150 137 127 126 125 124 122 120 118 118 117 114 112 109 106 104 103 99 95 90 86 84 81 78
188 237 229 206 205 206 222 237 229 205 203 205 207 209 209 213 212 208 209 210 211 217 219 217 194 120 116 131 144 149 149 148 152 155 155 156 155 153 151 148 140 131 127 128 130 133 133 132 134 136 137 138 138 136 136 138 135 132 134 134 139 158 153 130 126 132 129 124 122 119 118 118 116 112 108 106 106 105 102 100 98 95 93 92 87 82
190 216 231 191 189 215 213 222 244 216 209 205 226 228 218 215 213 213 214 203 197 210 231 206 143 124 134 152 152 153 153 151 151 151 155 161 158 152 147 142 136 129 127 130 134 137 137 136 136 136 134 134 133 131 131 131 128 129 132 134 141 151 141 127 132 135 126 121 122 120 120 119 115 112 111 111 111 109 106 104 104 103 101 98 93 89
196 204 236 188 186 212 195 188 202 208 217 350 6 330 274 236 217 213 222 215 196 203 230 218 152 143 155 151 141 148 146 138 143 152 156 159 152 143 139 136 137 135 134 139 142 141 140 136 133 132 131 129 127 126 126 126 128 133 137 140 141 141 140 141 140 131 124 124 125 122 121 119 114 113 112 112 112 108 105 105 105 103 99 95 92 89
200 212 251 203 193 196 168 184 209 203 347 1 349 322 308 300 249 214 214 216 204 198 215 220 178 148 140 120 124 141 135 130 143 154 151 152 144 137 136 139 143 143 142 145 145 142 141 137 133 133 134 132 129 130 132 134 138 141 141 142 142 140 142 142 137 131 129 126 123 121 121 118 115 114 115 114 112 110 109 107 101 96 94 92 89 86
193 209 237 207 204 210 184 189 192 124 25 328 312 283 264 287 278 247 220 214 208 198 200 214 194 146 125 116 128 142 138 136 148 150 148 148 139 135 140 143 146 147 144 142 143 142 142 140 138 138 137 135 133 134 138 142 143 144 143 141 140 140 138 136 137 137 131 124 123 125 123 120 120 120 119 118 117 117 115 110 102 98 99 97 94 91
199 210 234 221 215 214 197 201 206 204 224 235 233 241 274 287 268 261 295 254 218 199 190 201 188 140 129 131 133 140 145 148 156 161 156 146 134 135 143 144 148 150 143 139 141 142 142 140 139 138 137 134 132 136 144 147 144 143 142 140 140 140 138 138 139 137 128 124 126 126 123 125 126 124 123 122 121 118 113 108 106 106 106 105 102 100
198 204 246 258 237 209 200 213 221 225 241 233 196 187 239 272 258 226 248 251 224 207 200 198 175 137 135 142 140 143 155 164 170 172 161 147 138 139 142 143 149 146 139 140 143 142 141 140 139 137 135 133 135 143 149 148 142 140 138 138 140 137 135 139 138 132 128 125 124 124 124 127 127 125 124 123 119 113 110 109 111 112 112 112 111 109
190 190 223 236 234 220 217 224 225 234 259 132 151 181 210 229 220 204 216 218 204 218 223 203 162 137 139 145 145 154 178 191 175 163 156 147 141 140 142 144 148 143 140 144 144 141 142 143 140 138 137 138 142 146 148 144 140 141 140 138 135 131 130 132 128 125 125 124 124 124 123 123 123 123 123 122 118 115 116 118 119 119 117 114 112 113
189 193 209 217 223 221 224 234 233 136 111 136 147 214 219 207 201 203 207 223 304 252 222 206 163 142 146 151 158 178 198 155 137 145 151 148 143 142 143 144 146 147 147 147 143 142 144 144 141 138 138 142 144 146 150 148 138 130 129 129 127 123 121 120 119 119 119 119 121 123 121 119 117 114 114 116 116 115 116 116 114 112 111 110 114 118
193 198 204 214 225 220 211 227 230 177 146 158 147 132 219 206 194 207 248 332 325 294 216 202 183 148 151 162 173 175 135 117 129 141 145 145 145 145 145 148 150 149 145 142 143 145 144 140 138 138 140 145 142 137 139 137 125 114 114 118 119 119 116 115 115 115 115 115 116 118 118 116 114 112 113 115 116 115 114 112 110 108 110 114 119 121
184 190 206 211 219 227 213 221 239 218 163 171 154 134 197 213 151 319 315 316 326 333 242 202 184 151 152 162 163 136 120 122 135 142 139 142 146 146 148 152 149 140 137 141 147 147 142 139 141 142 144 147 141 131 128 124 120 122 125 124 125 127 124 120 119 118 119 119 118 119 120 119 118 119 120 119 118 117 116 117 118 120 125 128 127 124
189 189 211 202 194 223 224 210 209 127 139 161 151 128 150 168 29 328 314 328 356 8 7 271 145 133 142 143 130 125 121 121 134 141 139 142 146 144 147 149 140 134 139 147 149 145 142 143 144 143 145 146 142 140 141 135 130 133 136 134 136 136 132 129 128 127 128 128 127 127 127 125 124 124 123 121 121 120 122 127 131 135 140 140 136 133
179 144 260 234 154 172 57 81 94 112 127 136 110 106 128 121 36 350 349 14 23 31 26 30 62 93 123 125 124 131 126 122 136 144 141 144 146 140 138 138 134 137 145 149 148 146 146 146 145 143 144 145 144 144 145 141 137 137 137 139 141 141 139 137 136 135 135 134 132 131 129 126 124 122 121 121 121 122 127 133 134 135 137 136 130 126
69 74 333 298 112 95 72 85 116 120 117 118 107 105 117 107 53 14 26 37 40 51 55 67 92 115 143 138 133 137 128 122 134 142 141 143 143 135 128 130 137 146 152 148 144 146 146 146 145 143 140 141 144 143 142 141 140 138 139 143 144 143 141 140 138 139 137 135 133 132 129 125 123 121 121 122 124 128 129 126 122 119 118 120 120 119
17 2 272 234 165 132 86 75 83 88 106 124 120 111 110 106 79 38 45 52 53 66 76 87 106 126 142 134 125 129 129 127 131 139 142 142 137 134 135 139 148 157 157 147 142 145 148 146 144 140 138 141 143 141 139 140 140 139 141 144 144 142 141 141 141 140 137 135 134 131 127 125 123 120 117 116 122 126 115 101 99 97 88 85 93 102
346 323 289 243 201 131 103 96 61 41 154 156 124 119 123 123 112 86 80 77 72 82 87 93 107 122 133 127 123 127 135 136 134 137 145 144 138 139 144 149 155 159 156 151 148 148 150 149 145 140 140 141 140 140 140 141 141 141 142 143 142 142 142 142 141 139 137 135 132 128 127 127 120 109 100 97 100 102 94 89 94 94 85 75 73 83
1 332 325 334 44 76 97 109 136 216 176 122 69 75 84 101 118 111 100 94 89 92 95 104 125 144 130 122 126 131 138 141 140 142 148 151 149 151 154 155 155 155 156 158 154 151 154 153 146 141 141 139 140 142 142 141 142 144 144 143 144 144 143 142 141 139 136 133 130 128 131 128 114 105 102 99 96 94 94 98 103 100 92 83 77 85
350 321 344 28 59 86 108 64 353 271 146 107 94 88 81 93 114 112 112 115 106 105 109 112 126 140 129 124 133 138 139 143 146 147 149 154 158 159 157 156 153 153 158 161 154 151 153 145 136 136 140 141 142 143 142 142 144 145 144 144 145 144 143 142 140 137 133 133 133 134 134 126 116 114 113 108 104 102 100 102 105 105 101 95 92 99
332 14 34 62 80 108 123 84 32 42 59 72 122 116 96 104 120 117 123 132 115 111 121 122 124 130 131 135 143 140 137 141 146 148 152 157 161 161 159 158 155 153 155 153 144 139 138 134 133 139 143 142 143 144 143 144 145 144 145 145 144 145 145 143 139 136 136 137 137 136 132 127 125 125 122 118 116 112 104 99 98 100 102 103 105 111
Height
726 734 732 728 724 721 720 718 718 716 713 712 712 714 717 717 710 701 696 686 687 707 714 710 710 711 711 701 693 688 683 694 715 731 739 743 749 757 761 766 769 770 771 774 777 777 776 776 773 770 769 769 769 770 772 774 777 780 783 786 790 793 796 796 798 800 801 803 804 805 806 809 815 817 818 817 817 819 822 824 823 821 821 822 822 822
724 730 725 719 718 715 716 716 714 715 713 710 708 709 709 712 706 694 691 685 685 702 709 706 708 709 705 698 692 687 685 702 722 732 739 743 748 752 754 761 765 766 769 771 772 773 774 777 777 773 771 771 772 772 774 775 778 781 783 786 789 791 792 792 795 797 799 801 803 805 806 810 814 814 814 816 817 819 821 823 824 822 820 820 820 822
726 724 717 714 713 712 713 712 712 714 714 712 707 707 707 704 702 694 687 681 682 699 708 703 708 708 700 696 691 685 691 713 725 727 733 737 742 749 752 757 762 766 769 770 769 770 772 775 778 776 774 773 773 773 775 776 778 781 783 786 787 786 786 790 794 796 799 801 802 803 805 808 811 811 812 815 817 818 819 821 823 822 819 819 820 822
724 718 711 710 710 711 711 709 713 715 715 714 709 708 704 696 701 702 689 680 679 693 703 700 706 706 698 696 691 687 700 720 728 727 729 731 735 742 747 752 759 763 768 769 769 768 767 770 774 775 774 774 774 774 775 777 779 781 783 784 784 783 786 791 794 796 798 800 802 803 805 808 810 811 812 814 817 819 819 822 825 823 821 821 821 823
714 708 704 706 707 708 710 709 711 716 716 712 707 706 701 692 695 695 684 678 680 691 697 699 711 710 701 701 698 699 712 723 728 730 732 733 734 739 745 750 753 756 761 764 765 764 761 762 767 770 771 772 774 774 775 777 778 780 781 782 783 785 789 791 792 794 796 798 800 802 804 808 809 810 812 814 817 820 821 825 827 825 823 822 822 823
704 699 698 703 704 704 708 707 705 711 717 714 705 699 695 689 688 688 683 683 696 707 700 703 725 722 703 701 700 705 721 728 727 730 733 736 737 741 746 749 752 754 755 756 757 758 757 759 764 767 768 770 772 774 775 776 778 779 780 781 783 786 789 790 791 793 795 797 799 801 804 807 809 811 812 813 816 819 821 823 824 823 823 823 823 822
696 691 693 699 701 702 705 704 700 704 714 715 702 693 691 687 685 686 686 692 710 717 700 700 726 727 707 702 697 700 720 729 727 727 729 733 737 740 744 747 750 753 753 754 753 753 755 757 761 764 766 768 770 773 775 776 777 778 779 781 783 786 788 791 792 793 795 797 799 801 802 805 808 811 812 813 814 816 817 819 819 821 824 825 824 822
689 688 692 695 698 701 704 703 697 697 709 709 694 690 693 690 688 684 685 696 704 705 701 697 711 724 714 701 691 693 715 727 725 727 727 728 733 737 741 744 747 751 752 753 754 754 754 755 758 762 764 766 769 771 773 775 776 777 779 781 783 786 789 791 793 794 795 796 798 799 800 803 806 809 811 812 813 815 817 819 819 822 826 825 823 823
684 687 690 692 697 699 698 698 691 692 703 699 686 689 692 691 688 678 680 690 689 701 717 703 701 724 720 697 686 689 710 726 724 725 726 724 729 732 736 741 745 749 750 751 754 755 755 756 758 761 763 765 768 770 772 774 776 777 778 781 784 787 789 791 793 793 795 796 798 799 799 801 804 807 810 812 815 818 821 821 822 824 825 824 823 822
681 681 680 687 695 693 692 691 685 690 697 690 684 688 689 689 686 681 685 687 687 709 725 705 697 722 723 699 689 691 708 725 721 719 723 722 724 728 732 738 743 746 748 748 750 753 755 757 759 761 764 766 767 769 771 773 775 777 778 781 784 787 790 791 793 794 795 797 798 799 800 801 803 806 809 812 816 820 822 823 823 824 824 823 823 823
675 674 674 679 686 685 685 686 682 686 691 687 686 687 691 694 688 691 691 686 701 721 718 699 691 711 723 706 690 687 696 711 715 715 719 720 722 725 729 735 740 743 745 744 747 753 756 756 757 760 766 771 770 769 771 773 774 777 779 782 785 787 790 792 793 795 796 798 799 800 801 802 803 805 808 811 815 818 821 822 822 823 823 823 823 823
672 677 676 673 676 678 680 685 683 683 685 687 687 686 696 705 701 706 701 694 717 727 710 696 685 699 722 708 685 678 678 693 708 711 713 717 720 723 726 731 736 739 741 742 746 753 756 757 758 758 763 771 772 771 772 774 776 778 779 782 784 786 789 792 794 796 798 799 800 802 803 803 803 805 808 811 814 816 819 820 821 823 823 824 824 824
675 676 676 673 673 674 679 688 688 684 685 689 689 689 705 720 722 729 721 709 720 718 699 692 688 696 709 696 680 674 670 681 696 701 705 710 714 719 723 728 733 736 739 741 745 752 755 758 760 759 760 768 773 773 774 776 778 780 780 780 782 786 788 791 794 797 799 800 802 803 803 803 804 806 808 810 812 815 817 819 821 823 824 824 824 824
684 678 675 673 671 666 670 686 694 691 689 693 693 696 708 722 736 743 731 719 723 716 696 686 689 697 697 686 678 672 667 670 680 690 697 702 707 714 718 724 730 734 738 742 746 753 757 759 760 759 761 769 773 773 773 773 773 776 779 780 782 785 788 790 793 796 799 801 802 802 802 803 804 806 808 810 813 815 818 820 822 824 825 825 825 824
693 689 674 668 671 667 668 678 686 686 689 692 687 689 698 707 725 738 730 727 730 721 703 693 695 699 697 688 674 666 665 665 672 683 690 696 702 708 715 722 728 733 738 744 748 754 759 760 760 760 764 772 773 770 770 771 771 774 777 779 781 784 787 790 793 796 798 800 801 801 801 803 805 806 809 812 814 816 819 822 824 825 825 825 825 824
690 688 669 666 673 675 680 677 671 679 692 691 681 687 694 692 702 719 718 716 722 723 712 702 696 688 686 684 670 663 666 665 672 683 689 696 700 706 717 723 727 734 739 744 749 753 756 757 757 760 768 774 772 770 772 773 775 776 777 780 782 784 788 790 793 796 798 800 801 801 802 804 806 808 811 813 816 818 822 825 826 826 826 825 825 825
685 686 670 669 675 675 683 680 667 675 689 689 686 688 686 679 686 708 716 709 717 730 716 701 698 689 689 693 677 669 674 672 676 686 691 697 699 707 720 725 730 736 738 742 746 747 750 749 750 757 768 772 770 771 773 774 776 777 778 781 783 785 788 791 794 797 799 801 802 803 804 806 808 810 813 816 819 822 825 826 826 826 826 826 827 828
678 688 675 672 681 677 675 677 669 667 676 686 691 683 680 684 684 695 714 720 727 735 717 701 703 701 704 708 690 680 686 685 682 687 693 699 702 711 723 729 733 736 738 741 742 743 744 744 748 758 767 771 770 770 772 774 777 778 780 783 785 787 788 790 794 797 801 802 802 803 805 807 810 813 816 819 822 824 826 827 827 827 827 828 829 828
668 688 682 673 683 680 670 677 680 669 666 675 678 675 684 703 702 696 709 724 732 737 725 708 702 698 699 702 695 691 693 691 687 687 694 701 706 713 724 731 734 735 738 741 741 742 743 746 753 759 766 770 771 772 773 775 777 779 782 784 787 790 790 790 794 797 800 801 801 804 807 809 813 816 819 821 823 824 826 827 827 828 828 828 829 828
661 681 688 675 673 677 676 682 685 675 670 671 672 676 682 692 697 695 698 708 721 732 730 717 708 700 689 683 688 693 689 689 692 691 692 698 705 713 722 728 732 733 735 737 739 742 744 751 760 762 764 768 770 773 776 778 779 781 784 785 788 791 791 792 793 796 799 800 802 805 808 811 814 817 820 821 823 824 825 826 827 828 828 828 828 828
660 675 690 681 670 677 683 680 676 675 679 681 679 683 687 685 685 689 690 690 702 719 726 725 719 701 680 671 677 684 685 687 690 691 692 693 701 713 718 721 727 730 732 734 738 743 747 756 764 765 765 767 770 775 778 779 781 783 785 787 788 791 792 793 794 796 799 801 804 806 809 812 815 817 820 821 823 824 825 826 827 828 828 828 828 828
665 674 686 687 680 684 682 671 668 670 675 680 679 678 685 688 688 699 703 688 685 700 710 719 721 702 680 672 671 674 681 684 684 688 692 691 697 711 717 718 724 728 731 734 738 744 750 757 764 765 765 768 771 774 777 779 782 785 787 788 790 792 794 795 796 798 800 802 805 807 810 813 815 818 820 821 823 825 826 827 827 827 828 828 828 828
661 671 686 692 684 680 676 669 670 669 665 671 675 670 675 682 684 698 709 695 686 692 693 703 715 706 687 677 673 675 679 681 682 686 689 689 694 707 716 718 723 728 732 735 739 745 752 758 761 762 764 767 770 773 776 779 782 785 787 788 790 792 795 797 798 799 801 803 806 808 811 813 816 818 820 822 824 825 826 827 827 828 828 828 828 828
661 673 689 696 685 675 671 669 670 668 666 673 676 668 669 674 675 682 688 685 690 697 695 706 719 711 693 681 679 681 680 679 681 683 687 694 700 708 715 719 724 729 733 737 741 746 752 756 759 761 764 767 769 773 776 779 782 785 788 789 791 793 795 798 799 801 803 805 807 810 812 814 817 819 821 823 824 825 826 827 827 828 828 828 828 828
669 677 686 696 697 691 688 685 682 677 673 674 675 672 669 668 671 678 677 679 694 699 693 705 719 709 694 686 685 686 685 685 685 686 692 700 705 711 716 721 726 731 735 739 743 748 752 755 758 761 765 768 770 774 777 780 783 786 788 791 792 795 797 800 801 803 805 807 809 811 813 815 817 819 821 823 824 825 826 826 827 828 828 828 828 828
670 676 681 694 703 704 702 696 688 683 677 671 671 674 671 666 669 677 681 691 704 701 690 698 711 707 695 690 692 694 696 699 698 697 700 704 709 714 719 724 728 732 738 741 744 749 753 755 759 763 766 769 772 775 778 782 784 787 790 793 795 798 800 803 805 805 807 809 810 812 813 815 817 819 821 822 823 824 825 826 827 828 828 828 828 828
669 674 676 682 687 689 689 682 673 674 679 677 675 675 673 669 667 671 684 696 699 698 695 692 699 707 702 695 697 700 703 710 710 707 708 710 714 718 721 726 730 734 740 742 745 750 754 757 761 765 768 771 774 778 781 784 787 790 793 795 797 800 802 806 808 807 807 809 811 812 814 816 817 819 820 822 823 824 825 826 827 828 828 828 828 828
671 678 675 673 673 670 669 666 663 669 676 675 674 674 672 673 674 676 686 689 688 698 704 693 692 706 703 694 697 703 705 711 714 712 714 717 719 722 726 730 735 739 742 744 748 752 756 761 764 766 770 772 776 779 783 786 789 792 795 797 800 802 804 807 810 809 808 809 811 813 814 816 817 818 820 822 823 824 825 827 828 828 828 828 828 828
673 681 673 670 671 663 659 661 660 666 673 674 674 673 670 673 678 681 684 681 683 696 701 692 694 702 698 691 695 701 705 710 714 715 717 720 724 728 732 736 739 742 744 747 751 754 758 762 765 768 771 773 776 780 783 787 791 793 797 799 802 804 806 809 811 810 809 809 811 812 814 816 818 819 820 822 823 825 826 827 828 828 828 828 828 829
673 680 672 671 673 665 659 660 658 664 672 675 674 672 670 674 677 679 680 678 681 688 687 686 691 693 689 688 690 696 703 708 712 716 718 722 728 733 737 740 741 743 746 749 753 756 760 762 765 769 772 774 776 779 783 788 791 794 797 799 802 805 808 810 811 810 810 811 811 812 814 816 818 819 820 821 823 825 826 827 827 828 828 829 829 830
674 680 673 672 678 675 667 661 659 665 672 673 673 671 671 675 677 677 677 678 682 686 683 684 691 689 683 684 689 696 703 707 712 717 720 723 728 734 738 741 743 745 748 752 756 758 761 764 766 770 773 776 778 780 783 787 791 794 796 798 801 804 807 809 809 809 811 812 812 813 814 816 817 819 820 821 823 825 826 827 827 828 829 829 830 831
679 684 675 674 685 684 674 666 663 665 671 676 677 675 674 677 679 678 678 679 683 687 688 691 696 694 688 688 695 699 702 708 713 716 719 723 727 733 737 740 744 747 750 754 758 760 763 765 767 770 773 776 779 782 784 786 790 793 795 797 800 803 806 807 808 810 812 812 812 812 814 816 817 818 819 821 823 824 825 826 827 829 830 831 832 833
680 687 680 678 689 688 677 672 669 670 682 688 680 672 673 675 676 676 676 677 677 682 690 694 694 694 692 693 698 701 703 709 713 714 719 723 726 732 737 740 745 749 752 756 759 762 764 766 769 771 774 776 779 782 785 786 789 792 794 798 800 802 804 806 807 810 812 812 812 812 814 815 816 817 819 821 823 824 826 827 828 830 831 832 833 834
679 685 680 678 691 693 681 675 679 689 698 691 674 666 667 669 672 675 676 674 674 678 682 684 686 692 695 695 699 702 704 708 712 713 717 721 725 731 737 741 747 750 754 757 760 762 764 766 769 772 775 777 779 782 785 788 790 793 795 799 801 803 804 805 807 810 811 811 811 812 814 815 816 818 820 821 823 825 826 828 829 830 832 833 834 835
678 683 681 678 687 691 683 686 703 713 702 685 674 671 668 665 665 671 674 671 672 677 678 679 685 691 692 694 699 702 703 707 711 714 716 720 725 731 738 743 747 750 754 757 759 762 764 765 767 771 774 777 779 781 785 789 793 795 797 799 802 803 805 805 807 809 810 811 812 813 814 815 816 818 820 822 824 825 827 828 830 831 832 833 835 836
678 684 684 679 683 688 691 701 715 712 694 684 683 679 673 672 671 674 680 675 670 675 679 680 684 688 690 695 701 703 705 710 714 716 717 721 725 731 738 743 747 750 753 755 757 760 764 766 768 771 773 776 779 782 785 789 794 796 798 800 802 804 805 806 807 808 810 811 812 813 814 816 818 820 821 823 825 827 829 830 831 832 834 835 836 837
676 683 684 682 683 688 695 701 703 703 701 698 692 681 675 678 676 678 686 682 669 670 676 678 682 689 692 696 701 705 708 714 721 723 721 722 727 733 738 742 746 749 751 755 758 761 765 768 771 773 775 777 780 783 785 789 794 796 798 800 802 804 806 807 808 809 810 812 813 814 816 817 819 821 823 825 827 828 830 831 833 834 835 837 838 839
672 677 681 687 688 686 694 702 703 708 712 704 691 679 673 675 672 673 687 688 672 666 671 674 680 690 693 694 699 705 710 719 727 728 724 725 730 734 738 742 745 748 751 755 759 762 766 769 772 775 777 778 781 784 787 790 794 796 798 800 802 804 806 808 809 810 811 812 814 816 817 819 821 823 825 826 828 830 831 832 834 835 837 838 839 841
672 675 679 690 692 687 694 705 705 707 707 697 686 679 676 676 671 674 694 696 674 664 667 670 678 689 693 693 697 704 713 723 727 725 722 726 731 735 739 743 746 750 753 756 759 762 766 769 772 775 777 779 782 785 788 791 794 796 798 800 802 805 807 809 810 811 812 814 816 818 820 821 823 824 826 828 829 831 832 834 835 837 838 840 841 842
678 682 687 694 694 688 693 700 699 700 700 692 685 681 677 674 674 688 710 702 674 666 667 666 675 687 690 692 698 704 710 714 715 716 719 724 730 735 738 743 746 750 753 757 760 763 766 769 772 774 777 780 782 786 789 791 794 796 799 801 804 806 808 810 811 812 814 816 818 820 822 823 825 826 827 829 830 832 834 835 836 838 839 841 842 844
685 688 690 693 693 691 695 699 698 699 696 687 684 684 678 678 687 703 709 693 674 672 670 665 674 684 687 692 698 701 700 697 699 708 716 722 729 734 738 742 746 749 753 757 760 763 766 769 772 774 777 780 783 786 789 791 794 797 799 802 805 808 810 811 813 814 816 818 819 822 823 824 826 827 829 830 832 833 835 836 837 839 840 842 844 845
690 691 691 692 692 690 693 698 700 700 693 683 683 683 681 690 703 702 691 681 676 674 669 667 674 681 684 690 694 694 694 695 699 708 715 721 728 734 738 742 745 749 753 756 760 763 766 769 772 775 778 781 783 786 788 790 793 797 801 804 807 810 811 813 814 816 818 820 821 823 825 826 828 829 831 832 833 834 836 837 839 840 842 844 845 845
688 694 696 691 689 691 693 698 704 703 691 681 683 688 690 696 700 692 683 679 676 672 669 668 672 677 683 688 692 693 696 699 704 710 717 723 728 733 739 742 744 748 752 756 760 763 765 769 773 776 779 781 784 787 789 791 794 799 803 806 809 811 813 814 816 818 819 821 823 825 827 828 829 831 833 834 835 836 837 839 840 842 843 845 845 846
681 688 694 687 683 691 698 698 696 693 684 679 684 691 692 690 689 687 685 681 676 674 673 671 672 676 680 685 693 698 701 705 710 714 719 725 729 734 739 742 744 749 753 756 760 763 767 771 774 776 780 782 785 788 791 794 797 801 805 807 810 812 814 815 818 819 821 823 825 826 828 830 831 833 834 835 836 837 838 840 841 842 844 844 845 845
680 681 690 689 683 686 692 692 687 682 680 680 683 686 687 686 686 686 684 681 678 678 677 678 682 685 686 689 694 699 705 711 714 717 722 727 731 735 739 742 746 750 754 757 760 764 768 771 774 777 780 784 787 790 793 796 798 801 804 807 810 812 814 816 819 820 822 824 825 827 829 830 832 833 834 836 837 838 839 841 842 843 844 844 845 845
678 679 687 690 686 684 687 688 685 682 682 683 684 685 685 686 686 685 683 683 682 681 681 684 688 691 693 695 695 698 706 714 717 721 725 729 733 737 741 744 749 752 755 758 761 764 768 771 774 777 781 785 789 792 794 797 799 801 804 807 810 812 814 817 819 821 823 824 826 827 829 830 832 834 835 837 838 839 841 842 842 843 844 844 845 845
683 683 685 685 685 689 694 694 688 687 688 686 685 687 687 687 688 687 686 685 684 683 684 686 688 689 691 693 695 700 707 714 720 725 728 731 735 739 742 747 751 753 755 758 762 766 769 771 775 778 782 786 790 792 795 798 800 802 805 807 809 812 815 817 819 821 823 824 826 828 829 831 832 834 836 837 839 840 841 842 842 843 843 844 845 845
690 689 688 684 684 689 697 698 694 695 695 690 687 688 688 689 689 687 687 686 685 686 687 687 689 690 690 693 698 703 708 714 721 727 731 734 738 741 745 748 751 753 756 759 762 766 768 770 774 778 783 787 790 793 795 798 800 803 805 807 810 813 815 818 820 821 823 825 826 828 829 831 832 834 836 838 839 840 841 842 843 844 844 845 845 845
698 697 693 691 693 694 697 697 696 697 698 695 692 690 689 689 689 688 688 688 687 688 689 689 691 692 692 695 700 706 712 717 721 726 732 736 739 742 746 748 751 753 756 759 762 765 767 769 773 778 784 787 790 793 796 798 801 803 805 808 811 813 815 818 819 821 823 825 826 828 829 831 833 835 837 839 840 841 843 844 845 845 845 846 847 847
703 702 696 696 703 706 704 700 697 698 699 698 695 693 691 690 690 690 691 690 689 690 691 692 693 694 695 697 701 706 713 718 721 725 732 737 739 742 744 747 750 753 756 759 762 764 766 769 773 779 785 788 791 793 796 798 801 804 806 808 811 813 815 817 819 821 823 825 826 828 830 832 834 837 839 841 842 843 845 845 846 846 846 847 848 849
702 702 699 701 705 705 702 699 697 698 700 698 695 694 691 690 691 693 694 693 692 690 691 694 696 698 699 700 702 707 713 718 722 726 731 736 740 742 744 746 748 751 755 758 760 764 767 771 776 781 785 788 791 794 796 799 801 804 806 809 811 813 816 817 819 821 823 825 827 828 830 832 835 837 840 842 843 845 846 846 847 848 848 849 850 851